Regional Weather Roundup
Issued by NWS Charleston, WV

Home | Current Version | Previous Version | Graphics & Text | Print | Product List | Glossary On
Versions: 1 2 3 4 5 6 7 8 9 10 11 12 13 14 15 16 17 18 19 20 21 22 23 24 25 26 27 28 29 30 31 32 33 34 35 36 37 38 39 40 41 42 43 44 45 46 47 48 49 50
000
ASUS41 KRLX 111810
RWRRLX
West Virginia Regional Weather Roundup
National Weather Service Charleston WV
100 PM EST THU FEB 11 2016

Note: "fair" indicates few or no clouds below 12,000 feet with no
significant weather and/or obstructions to visibility.

WVZ003-111900-
Northern Panhandle of West Virginia

CITY           SKY/WX    TMP DP  RH WIND       PRES   REMARKS
WHEELING       LGT SNOW  17   4  56 W14       30.16F WCI   3
$$

WVZ009-111900-
Northwest West Virginia

CITY           SKY/WX    TMP DP  RH WIND       PRES   REMARKS
PARKERSBURG    CLOUDY    20   3  48 W8        30.26F
$$

WVZ006-111900-
Western West Virginia

CITY           SKY/WX    TMP DP  RH WIND       PRES   REMARKS
HUNTINGTON     PTSUNNY   23   5  46 N5        30.26F
$$

WVZ015-111900-
West Central West Virginia

CITY           SKY/WX    TMP DP  RH WIND       PRES   REMARKS
CHARLESTON     PTSUNNY   21   5  50 VRB7      30.24F
$$

WVZ022-031-111900-
North Central West Virginia

CITY           SKY/WX    TMP DP  RH WIND       PRES   REMARKS
CLARKSBURG     CLOUDY    17   1  49 W17G29    30.17F WCI   1
MORGANTOWN     CLOUDY    17   2  51 W12       30.16F WCI   4
$$

WVZ025-035-042-045-111900-
Southern West Virginia

CITY           SKY/WX    TMP DP  RH WIND       PRES   REMARKS
BECKLEY        PTSUNNY   18   4  54 W10       30.09F WCI   6
LOGAN          PTSUNNY   19   5  53 NW3       30.18F
BLUEFIELD        N/A     17   1  49 W15G22    30.07S WCI   2
LEWISBURG        N/A     21   3  45 W8        30.09F
$$

WVZ047-111900-
Northern Mountains of West Virginia

CITY           SKY/WX    TMP DP  RH WIND       PRES   REMARKS
ELKINS         CLOUDY    15  -1  49 W10G18    30.10F WCI   2
$$

WVZ052-111900-
Eastern Panhandle of West Virginia

CITY           SKY/WX    TMP DP  RH WIND       PRES   REMARKS
MARTINSBURG    PTSUNNY   24   1  36 W21G30    30.10F WCI   9
PETERSBURG       N/A     22   2  42 NW20G29   30.13F WCI   7
$$



USA.gov is the U.S. government's official web portal to all federal, state and local government web resources and services.